Simultaneous Nadir Overpasses (SNOs) Predictions

Prediction of SNOs between GOES-16 and METOP-B Satellite Orbit:

Table of predicted SNOs for the next 14.0 days since TLE Epoch: 3/27/2020
Index Date Time (GOES-16) GOES-16 Lat,Lon METOP-B Lat,Lon Distance(km) Time Diff (sec)
1 03/28/2020 02:33:47 0.01, -75.13 -0.18, -76.11 111.98 80
2 03/29/2020 02:15:47 0.03, -75.13 0.91, -71.12 456.73 80
3 03/30/2020 14:34:40 -0.03, -75.14 0.11, -75.68 61.67 80
4 04/02/2020 02:33:02 0.03, -75.13 0.02, -75.29 18.12 80
5 04/04/2020 14:28:34 -0.03, -75.15 -0.10, -74.86 33.58 80
6 04/06/2020 02:50:15 0.03, -75.14 -0.93, -79.45 490.87 80
7 04/07/2020 02:26:55 0.03, -75.15 0.16, -74.45 79.01 80
8 04/08/2020 14:48:28 -0.02, -75.18 0.85, -79.02 437.40 80
9 04/09/2020 14:25:08 -0.01, -75.19 -0.25, -74.02 132.87 80




NCC Satellite Simultaneous Nadir Overpasses (SNOs) Prediction Service
